DW8482 Tortoreto Alto IT current weather conditions

sailwx.info

Wind from 090 at 4 knots gusting 6

Air temperature 20.6° C
Dewpoint 17.0° C

Last reported at 2014-Sep-30 14:47 UTC.
Time now 2014-Sep-30 15:59 UTC

Location: N 42°48' E 013°54'.
View on Google Maps.

See reports from other nearby stations

  
Tides and Currents Weather Stations Pressure Air Temp Water Temp Dewpoint Dewpoint Depression Visibility Wind Speed Wind Dir Waves Ship Positions
date/time (UTC)wind fromknots sea level pressurealtimeterstation pressurevisibilityair tempwater tempwave heightnotes
2014-Sep-30 14:47 090 4 gusting 6 20.6
2014-Sep-30 14:42 088 5 gusting 6 20.6
2014-Sep-30 14:37 082 4 gusting 6 20.6
2014-Sep-30 14:32 087 6 gusting 7 20.6
2014-Sep-30 14:27 067 4 gusting 6 21.1
2014-Sep-30 14:22 059 4 gusting 6 21.1
2014-Sep-30 14:17 063 1 gusting 6 21.1
2014-Sep-30 14:12 060 3 gusting 6 21.1
2014-Sep-30 14:07 087 5 gusting 7 21.7
2014-Sep-30 14:02 050 5 gusting 7 21.1
2014-Sep-30 13:57 060 4 gusting 6 21.1
2014-Sep-30 13:52 070 6 gusting 7 21.1
2014-Sep-30 13:47 076 6 gusting 7 21.7
2014-Sep-30 13:42 051 5 gusting 6 21.7
2014-Sep-30 13:37 053 5 gusting 7 21.1
2014-Sep-30 13:32 100 21.1
2014-Sep-30 13:27 058 6 gusting 7 21.7
2014-Sep-30 13:22 046 5 gusting 7 21.7
2014-Sep-30 13:17 060 6 gusting 7 21.7
2014-Sep-30 13:12 050 3 gusting 6 21.7
2014-Sep-30 13:07 061 6 gusting 8 21.7
2014-Sep-30 13:02 015 5 gusting 6 21.7
2014-Sep-30 12:57 065 3 gusting 6 21.7
2014-Sep-30 12:52 058 4 gusting 7 22.2
2014-Sep-30 12:47 060 4 gusting 6 21.7
2014-Sep-30 12:42 055 3 gusting 6 21.1
2014-Sep-30 12:37 069 2 gusting 7 21.7
2014-Sep-30 12:32 064 3 gusting 7 21.7
2014-Sep-30 12:27 040 5 gusting 8 21.7
2014-Sep-30 12:22 065 4 gusting 7 21.7
2014-Sep-30 12:17 054 6 gusting 9 21.7
2014-Sep-30 12:12 067 6 gusting 9 21.7
2014-Sep-30 12:07 074 7 gusting 8 21.7
2014-Sep-30 12:02 074 3 gusting 7 22.2
2014-Sep-30 11:57 072 7 gusting 8 21.7
2014-Sep-30 11:52 057 4 gusting 7 21.7
2014-Sep-30 11:47 048 4 gusting 8 21.7
2014-Sep-30 11:42 064 4 gusting 8 21.7
2014-Sep-30 11:37 063 6 gusting 8 22.2
2014-Sep-30 11:32 040 4 gusting 6 22.2
2014-Sep-30 11:27 010 3 gusting 7 21.7
2014-Sep-30 11:22 044 5 gusting 8 21.7
2014-Sep-30 11:17 075 6 gusting 8 22.2
2014-Sep-30 11:12 065 6 gusting 6 21.7
2014-Sep-30 11:07 036 4 gusting 8 21.7
2014-Sep-30 11:02 057 4 gusting 6 21.7
2014-Sep-30 10:57 074 3 gusting 6 21.1
2014-Sep-30 10:52 071 2 gusting 7 21.7
2014-Sep-30 10:47 070 6 gusting 6 21.7
2014-Sep-30 10:42 046 5 gusting 6 21.1
2014-Sep-30 10:37 062 2 gusting 6 21.1
2014-Sep-30 10:32 071 3 gusting 7 21.7
2014-Sep-30 10:27 053 3 gusting 6 21.7
2014-Sep-30 10:22 054 2 gusting 6 21.7
2014-Sep-30 10:17 067 3 gusting 6 21.1
2014-Sep-30 10:12 051 1 gusting 6 21.1
2014-Sep-30 10:07 076 6 gusting 6 21.1
2014-Sep-30 10:02 055 4 gusting 6 21.1
2014-Sep-30 09:57 073 6 gusting 6 21.7
2014-Sep-30 09:52 058 2 gusting 5 21.7
2014-Sep-30 09:47 052 5 gusting 6 21.7
2014-Sep-30 09:42 082 0 gusting 5 21.1
2014-Sep-30 09:37 051 4 gusting 5 21.1
2014-Sep-30 09:32 059 2 gusting 6 21.7
2014-Sep-30 09:27 057 3 gusting 6 21.7
2014-Sep-30 09:22 048 3 gusting 6 21.7
2014-Sep-30 09:17 071 2 gusting 6 21.7
2014-Sep-30 09:12 063 3 gusting 5 21.7
2014-Sep-30 09:07 005 4 gusting 5 21.7
2014-Sep-30 09:02 21.7
2014-Sep-30 08:57 047 21.7
2014-Sep-30 08:52 21.7
2014-Sep-30 08:47 348 0 gusting 3 21.1
2014-Sep-30 08:42 040 21.1
2014-Sep-30 08:37 057 0 gusting 1 21.1
2014-Sep-30 08:32 015 0 gusting 2 20.6
2014-Sep-30 08:27 054 20.6
2014-Sep-30 08:22 053 20.6
2014-Sep-30 08:17 005 20.6
2014-Sep-30 08:12 026 20.6
2014-Sep-30 08:07 253 20.0
2014-Sep-30 08:02 253 20.0
2014-Sep-30 07:57 253 19.4
2014-Sep-30 07:52 253 19.4
2014-Sep-30 07:47 253 20.0
2014-Sep-30 07:42 253 20.0
2014-Sep-30 07:37 253 20.0
2014-Sep-30 07:32 253 19.4
2014-Sep-30 07:27 253 19.4
2014-Sep-30 07:22 253 18.9
2014-Sep-30 07:17 253 18.3
2014-Sep-30 07:12 253 17.8
2014-Sep-30 07:07 253 17.8
2014-Sep-30 07:02 253 1 gusting 4 17.8
2014-Sep-30 06:57 253 3 gusting 5 17.8
2014-Sep-30 06:52 254 3 gusting 5 17.8
2014-Sep-30 06:47 256 3 gusting 4 18.3
2014-Sep-30 06:42 257 18.3
2014-Sep-30 06:37 257 18.3
2014-Sep-30 06:32 159 18.3
2014-Sep-30 06:27 159 1 gusting 3 18.3
2014-Sep-30 06:22 205 17.8
2014-Sep-30 06:17 219 17.8
2014-Sep-30 06:12 236 17.2
2014-Sep-30 06:07 236 17.2
2014-Sep-30 06:02 236 17.2
2014-Sep-30 05:57 236 16.7
2014-Sep-30 05:52 236 3 gusting 3 16.7
2014-Sep-30 05:47 236 0 gusting 2 16.7
2014-Sep-30 04:47 246 16.7
2014-Sep-30 04:42 246 16.7
2014-Sep-30 04:37 246 16.7
2014-Sep-30 04:32 249 0 gusting 1 16.7
2014-Sep-30 04:27 249 16.7
2014-Sep-30 04:22 249 16.7
2014-Sep-30 04:17 249 16.7
2014-Sep-30 04:12 249 16.7
2014-Sep-30 04:07 249 16.7
2014-Sep-30 04:02 249 16.7
2014-Sep-30 03:57 249 16.7
2014-Sep-30 03:52 249 17.2
2014-Sep-30 03:47 249 17.2
2014-Sep-30 03:42 249 17.2
2014-Sep-30 03:37 249 17.2
2014-Sep-30 03:32 249 17.2
2014-Sep-30 03:27 249 17.2
2014-Sep-30 03:22 249 17.2
2014-Sep-30 03:17 249 17.2
2014-Sep-30 03:12 249 17.2
2014-Sep-30 03:07 249 17.2
2014-Sep-30 03:02 249 17.2
2014-Sep-30 02:57 249 17.2
2014-Sep-30 02:52 249 17.2
2014-Sep-30 02:47 249 17.2
2014-Sep-30 02:42 249 17.2
2014-Sep-30 02:37 249 17.2
2014-Sep-30 02:32 249 17.2
2014-Sep-30 02:27 249 17.2
2014-Sep-30 02:22 249 17.2
2014-Sep-30 02:17 249 0 gusting 1 16.7
2014-Sep-30 02:07 247 0 gusting 2 16.7
2014-Sep-30 02:02 247 16.7
2014-Sep-30 01:57 247 16.7
2014-Sep-30 01:52 247 1 gusting 3 17.2
2014-Sep-30 01:47 247 3 gusting 4 17.2
2014-Sep-30 01:42 244 16.7
2014-Sep-30 01:37 244 1 gusting 3 16.7
2014-Sep-30 01:32 244 2 gusting 3 17.2
2014-Sep-30 01:27 244 3 gusting 4 17.2
2014-Sep-30 01:22 235 3 gusting 3 17.2
2014-Sep-30 01:17 240 3 gusting 4 17.2
2014-Sep-30 01:12 238 3 gusting 5 16.7
2014-Sep-30 01:07 244 4 gusting 5 16.7
2014-Sep-30 01:02 242 3 gusting 5 16.7
2014-Sep-30 00:57 240 4 gusting 5 16.7
2014-Sep-30 00:52 214 3 gusting 6 16.7
2014-Sep-30 00:47 238 4 gusting 6 16.7
2014-Sep-30 00:42 234 5 gusting 5 16.7
2014-Sep-30 00:37 240 4 gusting 5 16.7
2014-Sep-30 00:32 244 4 gusting 6 16.7
2014-Sep-30 00:27 232 4 gusting 5 16.7
2014-Sep-30 00:22 232 4 gusting 6 16.7
2014-Sep-30 00:17 219 6 gusting 6 16.7
2014-Sep-30 00:12 237 5 gusting 5 16.7
2014-Sep-30 00:07 214 3 gusting 5 16.7
2014-Sep-30 00:02 230 4 gusting 5 16.7
2014-Sep-29 23:57 234 4 gusting 6 16.7
2014-Sep-29 23:52 243 5 gusting 5 16.7
2014-Sep-29 23:47 238 3 gusting 6 16.7
2014-Sep-29 23:42 236 5 gusting 5 16.1
2014-Sep-29 23:37 236 3 gusting 6 16.1
2014-Sep-29 23:32 248 4 gusting 5 16.7
2014-Sep-29 23:27 254 4 gusting 4 16.7
2014-Sep-29 23:22 246 0 gusting 2 16.1
2014-Sep-29 23:17 246 2 gusting 4 16.1
2014-Sep-29 23:12 248 3 gusting 4 16.1
2014-Sep-29 23:07 248 3 gusting 5 16.7
2014-Sep-29 23:02 247 3 gusting 4 16.7
2014-Sep-29 22:57 247 3 gusting 4 16.7
2014-Sep-29 22:52 261 3 gusting 3 16.7
2014-Sep-29 22:47 262 2 gusting 3 16.1
2014-Sep-29 22:42 262 1 gusting 4 16.1
2014-Sep-29 22:37 262 3 gusting 5 16.7
2014-Sep-29 22:32 222 2 gusting 3 16.7
2014-Sep-29 22:27 207 16.7
2014-Sep-29 22:22 208 17.2
2014-Sep-29 22:17 223 17.2
2014-Sep-29 22:12 223 0 gusting 2 17.2
2014-Sep-29 22:07 212 1 gusting 3 17.2
2014-Sep-29 22:02 209 1 gusting 4 17.2
2014-Sep-29 21:57 207 0 gusting 4 17.2
2014-Sep-29 21:52 211 16.7
2014-Sep-29 21:47 250 3 gusting 5 17.2
2014-Sep-29 21:42 217 1 gusting 4 16.7
2014-Sep-29 21:37 238 16.7
2014-Sep-29 21:32 221 1 gusting 5 16.7
2014-Sep-29 21:27 248 16.7
2014-Sep-29 21:22 242 3 gusting 6 16.7
2014-Sep-29 21:17 261 5 gusting 5 16.7
2014-Sep-29 21:12 255 3 gusting 6 16.7
2014-Sep-29 21:07 242 1 gusting 5 16.7
2014-Sep-29 21:02 246 4 gusting 5 16.7
2014-Sep-29 20:57 257 3 gusting 4 16.7
2014-Sep-29 20:52 259 16.7
2014-Sep-29 20:47 223 3 gusting 4 16.7
2014-Sep-29 20:42 212 1 gusting 4 16.7
2014-Sep-29 20:37 190 0 gusting 4 16.7
2014-Sep-29 20:32 225 16.7
2014-Sep-29 20:27 248 1 gusting 3 16.7
2014-Sep-29 20:22 247 2 gusting 3 16.7
2014-Sep-29 20:17 259 3 gusting 4 17.2
2014-Sep-29 20:12 232 17.2
2014-Sep-29 20:07 219 2 gusting 3 17.2
2014-Sep-29 20:02 205 1 gusting 2 17.2
2014-Sep-29 19:57 213 17.2
2014-Sep-29 19:52 211 0 gusting 1 17.2
2014-Sep-29 19:47 211 17.2
2014-Sep-29 19:42 202 17.2
2014-Sep-29 19:37 237 17.2
2014-Sep-29 19:32 237 17.2
2014-Sep-29 19:27 175 1 gusting 2 17.2
2014-Sep-29 19:22 080 0 gusting 0 17.2
2014-Sep-29 19:17 080 17.2
2014-Sep-29 19:12 080 17.2
2014-Sep-29 19:07 080 17.2
2014-Sep-29 19:02 080 17.2
2014-Sep-29 18:57 080 17.2
2014-Sep-29 18:52 080 17.2
2014-Sep-29 18:47 078 17.2
2014-Sep-29 18:42 078 17.2
2014-Sep-29 18:37 078 17.2
2014-Sep-29 18:32 078 17.2
2014-Sep-29 18:27 078 17.2
2014-Sep-29 18:22 078 17.2
2014-Sep-29 18:17 078 17.2
2014-Sep-29 18:12 078 17.2
2014-Sep-29 18:07 078 17.2
2014-Sep-29 18:02 078 17.8
2014-Sep-29 17:57 071 17.8
2014-Sep-29 17:52 071 17.8
2014-Sep-29 17:47 071 17.2
2014-Sep-29 17:42 071 17.2
2014-Sep-29 17:37 071 17.2
2014-Sep-29 17:32 071 17.2
2014-Sep-29 17:27 071 17.2
2014-Sep-29 17:22 071 17.2
2014-Sep-29 17:17 071 17.2
2014-Sep-29 17:12 063 17.2
2014-Sep-29 17:07 090 17.2
2014-Sep-29 17:02 060 17.8
2014-Sep-29 16:57 075 17.8
2014-Sep-29 16:52 067 0 gusting 3 17.8
2014-Sep-29 16:47 077 1 gusting 2 17.8
2014-Sep-29 16:42 082 1 gusting 4 17.8
2014-Sep-29 16:37 079 0 gusting 4 17.8
2014-Sep-29 16:32 077 1 gusting 5 17.8
2014-Sep-29 16:27 068 3 gusting 6 18.3
2014-Sep-29 16:22 092 2 gusting 4 18.3
2014-Sep-29 16:17 083 2 gusting 5 18.3
2014-Sep-29 16:12 098 1 gusting 6 18.3
2014-Sep-29 16:07 094 2 gusting 6 18.3
2014-Sep-29 16:02 083 6 gusting 6 18.3
2014-Sep-29 15:57 078 2 gusting 5 18.9
2014-Sep-29 15:52 111 3 gusting 6 18.9
2014-Sep-29 15:47 088 18.9
2014-Sep-29 15:42 139 1 gusting 4 18.9
2014-Sep-29 15:37 085 18.9
2014-Sep-29 15:32 090 4 gusting 7 18.9
2014-Sep-29 15:27 072 6 gusting 6 19.4
2014-Sep-29 15:22 079 6 gusting 6 19.4
2014-Sep-29 15:17 086 2 gusting 6 19.4
2014-Sep-29 15:12 072 6 gusting 6 19.4
2014-Sep-29 15:07 085 5 gusting 7 19.4
2014-Sep-29 15:02 071 6 gusting 7 19.4
2014-Sep-29 14:57 071 4 gusting 7 20.0
2014-Sep-29 14:52 059 3 gusting 7 20.0
2014-Sep-29 14:47 065 2 gusting 7 20.0
2014-Sep-29 14:42 079 6 gusting 10 19.4
2014-Sep-29 14:37 080 0 gusting 10 19.4
2014-Sep-29 14:32 087 5 gusting 12 19.4
2014-Sep-29 14:27 081 5 gusting 10 19.4
2014-Sep-29 14:22 075 6 gusting 7 20.0
2014-Sep-29 14:17 075 1 gusting 7 20.0
2014-Sep-29 14:12 063 3 gusting 7 20.0
2014-Sep-29 14:07 082 2 gusting 8 20.0
2014-Sep-29 14:02 082 6 gusting 9 20.0
2014-Sep-29 13:57 053 6 gusting 10 20.0
2014-Sep-29 13:52 069 6 gusting 11 20.0
2014-Sep-29 13:47 079 5 gusting 7 20.0
2014-Sep-29 13:42 071 4 gusting 10 20.0
2014-Sep-29 13:37 092 7 gusting 11 20.0
2014-Sep-29 13:32 066 6 gusting 12 20.0
2014-Sep-29 13:27 065 6 gusting 10 20.0
2014-Sep-29 13:22 064 7 gusting 11 20.0
2014-Sep-29 13:17 086 4 gusting 12 20.0
2014-Sep-29 13:12 090 5 gusting 9 20.0
2014-Sep-29 13:07 078 6 gusting 11 20.0
2014-Sep-29 13:02 076 6 gusting 9 20.0
2014-Sep-29 12:57 070 6 gusting 11 20.0
2014-Sep-29 12:52 078 9 gusting 10 20.0
2014-Sep-29 12:47 084 7 gusting 9 20.0
2014-Sep-29 12:42 067 10 gusting 12 20.0
2014-Sep-29 12:37 070 7 gusting 11 20.0
2014-Sep-29 12:32 052 6 gusting 11 20.0
2014-Sep-29 12:27 086 6 gusting 13 20.6
2014-Sep-29 12:22 069 13 gusting 12 20.6
2014-Sep-29 12:17 089 6 gusting 9 20.6
2014-Sep-29 12:12 070 9 gusting 9 20.6
2014-Sep-29 12:07 090 8 gusting 11 20.6
2014-Sep-29 12:02 047 6 gusting 8 20.0
2014-Sep-29 11:57 111 6 gusting 7 20.6
2014-Sep-29 11:52 065 4 gusting 8 20.6
2014-Sep-29 11:47 068 7 gusting 12 20.6
2014-Sep-29 11:42 045 7 gusting 9 20.6
2014-Sep-29 11:37 067 6 gusting 9 20.6
2014-Sep-29 11:32 058 7 gusting 9 20.6
2014-Sep-29 11:27 063 6 gusting 10 20.0
2014-Sep-29 11:22 095 5 gusting 10 20.0
2014-Sep-29 11:17 057 6 gusting 13 20.0
2014-Sep-29 11:12 096 6 gusting 10 20.6
2014-Sep-29 11:02 121 1 gusting 9 20.6
2014-Sep-29 10:57 068 6 gusting 9 20.0
2014-Sep-29 10:52 086 7 gusting 9 20.0
2014-Sep-29 10:47 075 8 gusting 12 20.0
2014-Sep-29 10:42 076 6 gusting 8 20.0
2014-Sep-29 10:32 099 2 gusting 7 20.0
2014-Sep-29 10:27 063 6 gusting 9 20.6
2014-Sep-29 10:22 057 6 gusting 8 20.0
2014-Sep-29 10:17 072 6 gusting 8 20.0
2014-Sep-29 10:12 062 6 gusting 7 20.0
2014-Sep-29 10:07 059 6 gusting 8 20.0
2014-Sep-29 10:02 056 6 gusting 8 20.6
2014-Sep-29 09:57 065 6 gusting 8 20.0
2014-Sep-29 09:52 084 5 gusting 9 20.0
2014-Sep-29 09:47 058 8 gusting 8 20.0
2014-Sep-29 09:42 075 6 gusting 7 20.0
2014-Sep-29 09:37 072 2 gusting 7 20.6
2014-Sep-29 09:32 060 6 gusting 8 20.6
2014-Sep-29 09:27 061 6 gusting 6 20.6
2014-Sep-29 09:22 039 4 gusting 6 20.0
2014-Sep-29 09:17 063 4 gusting 6 20.0
2014-Sep-29 09:12 074 3 gusting 6 20.0
2014-Sep-29 09:07 065 3 gusting 6 20.6
2014-Sep-29 09:02 063 2 gusting 5 20.0
2014-Sep-29 08:57 068 20.0
2014-Sep-29 08:52 018 20.0
2014-Sep-29 08:47 175 20.0
2014-Sep-29 08:42 103 1 gusting 4 19.4
2014-Sep-29 08:37 089 2 gusting 5 20.0
2014-Sep-29 08:32 085 0 gusting 5 20.0
2014-Sep-29 08:27 204 19.4
2014-Sep-29 08:22 105 19.4
2014-Sep-29 08:17 088 0 gusting 3 19.4
2014-Sep-29 08:12 157 19.4
2014-Sep-29 08:07 136 19.4
2014-Sep-29 08:02 132 19.4
2014-Sep-29 07:57 145 18.9
2014-Sep-29 07:52 266 18.3
2014-Sep-29 07:47 266 2 gusting 4 17.8
2014-Sep-29 07:42 266 2 gusting 5 17.8
2014-Sep-29 07:37 271 4 gusting 5 17.8
2014-Sep-29 07:32 271 4 gusting 4 17.8
2014-Sep-29 07:27 271 4 gusting 4 17.8
2014-Sep-29 07:22 271 3 gusting 4 17.8
2014-Sep-29 07:17 271 3 gusting 3 17.2
2014-Sep-29 07:12 271 2 gusting 3 17.2
2014-Sep-29 07:07 271 3 gusting 4 17.2
2014-Sep-29 07:02 271 4 gusting 4 17.2
2014-Sep-29 06:57 271 4 gusting 5 17.2
2014-Sep-29 06:52 269 4 gusting 4 17.2
2014-Sep-29 06:47 269 3 gusting 4 17.2
2014-Sep-29 06:42 247 2 gusting 4 17.2
2014-Sep-29 06:37 247 2 gusting 3 16.7
2014-Sep-29 06:32 247 2 gusting 3 16.7
2014-Sep-29 06:27 247 1 gusting 3 16.7
2014-Sep-29 06:22 247 2 gusting 3 16.1
2014-Sep-29 06:17 247 3 gusting 4 16.1
2014-Sep-29 06:12 247 3 gusting 4 16.7
2014-Sep-29 06:07 247 2 gusting 3 16.7
2014-Sep-29 06:02 247 16.7
2014-Sep-29 05:57 247 16.1
2014-Sep-29 05:52 247 1 gusting 3 16.1
2014-Sep-29 05:47 247 3 gusting 2 16.1
2014-Sep-29 04:47 255 0 gusting 1 16.1
2014-Sep-29 04:42 255 0 gusting 2 16.1
2014-Sep-29 04:37 255 1 gusting 2 15.6
2014-Sep-29 04:32 255 1 gusting 2 15.6
2014-Sep-29 04:22 255 1 gusting 1 16.1
2014-Sep-29 04:17 255 1 gusting 1 16.1
2014-Sep-29 04:12 255 16.1
2014-Sep-29 04:07 255 0 gusting 1 16.1
2014-Sep-29 04:02 255 16.1
2014-Sep-29 03:57 255 16.1
2014-Sep-29 03:52 255 1 gusting 2 16.1
2014-Sep-29 03:47 255 1 gusting 2 16.1
2014-Sep-29 03:42 255 1 gusting 3 16.1
2014-Sep-29 03:37 255 2 gusting 3 16.1
2014-Sep-29 03:32 255 2 gusting 2 16.1
2014-Sep-29 03:27 255 1 gusting 2 16.1
2014-Sep-29 03:22 255 0 gusting 2 16.1
2014-Sep-29 03:17 255 1 gusting 1 16.1
2014-Sep-29 03:12 255 15.6
2014-Sep-29 03:07 255 0 gusting 2 15.6
2014-Sep-29 03:02 255 1 gusting 3 15.6
2014-Sep-29 02:57 255 3 gusting 4 15.0
2014-Sep-29 02:52 259 3 gusting 6 15.0
2014-Sep-29 02:47 262 4 gusting 6 15.0
2014-Sep-29 02:42 255 3 gusting 5 15.0
2014-Sep-29 02:37 252 4 gusting 5 15.6
2014-Sep-29 02:32 253 3 gusting 5 15.6
2014-Sep-29 02:27 250 2 gusting 3 15.6
2014-Sep-29 02:22 250 2 gusting 4 16.1
2014-Sep-29 02:17 257 3 gusting 4 16.1
2014-Sep-29 02:12 257 3 gusting 3 16.1
2014-Sep-29 02:07 257 2 gusting 3 16.1
2014-Sep-29 02:02 257 1 gusting 2 16.1
2014-Sep-29 01:57 257 1 gusting 3 16.1
2014-Sep-29 01:52 257 2 gusting 4 16.1
2014-Sep-29 01:47 257 3 gusting 3 16.7
2014-Sep-29 01:42 257 0 gusting 2 16.1
2014-Sep-29 01:37 257 2 gusting 4 16.1
2014-Sep-29 01:32 257 3 gusting 4 16.7
2014-Sep-29 01:27 266 1 gusting 2 16.7
2014-Sep-29 01:22 266 16.7
2014-Sep-29 01:17 266 1 gusting 3 16.7
2014-Sep-29 01:12 266 1 gusting 2 16.7
2014-Sep-29 01:07 266 0 gusting 1 16.7
2014-Sep-29 01:02 266 0 gusting 2 16.7
2014-Sep-29 00:57 266 2 gusting 2 16.7
2014-Sep-29 00:52 266 2 gusting 2 16.7
2014-Sep-29 00:47 266 1 gusting 2 16.7
2014-Sep-29 00:42 266 16.7
2014-Sep-29 00:37 266 1 gusting 2 16.7
2014-Sep-29 00:32 266 1 gusting 3 16.7
2014-Sep-29 00:27 266 1 gusting 3 16.7
2014-Sep-29 00:22 266 2 gusting 3 16.7
2014-Sep-29 00:17 252 2 gusting 2 16.7
2014-Sep-29 00:12 252 1 gusting 3 16.7
2014-Sep-29 00:07 252 1 gusting 3 16.7
2014-Sep-29 00:02 252 2 gusting 3 16.7
2014-Sep-28 23:57 252 2 gusting 3 16.7
2014-Sep-28 23:52 252 3 gusting 4 16.7
2014-Sep-28 23:47 252 3 gusting 3 16.7
2014-Sep-28 23:42 252 3 gusting 4 16.7
2014-Sep-28 23:37 252 3 gusting 3 16.7
2014-Sep-28 23:32 246 3 gusting 3 16.7
2014-Sep-28 23:27 246 2 gusting 3 16.7
2014-Sep-28 23:22 250 3 gusting 5 16.7
2014-Sep-28 23:17 246 3 gusting 4 17.2
2014-Sep-28 23:12 245 1 gusting 3 17.2
2014-Sep-28 23:07 245 1 gusting 2 17.2
2014-Sep-28 23:02 245 2 gusting 2 17.2
2014-Sep-28 22:57 238 1 gusting 3 17.2
2014-Sep-28 22:52 238 3 gusting 3 17.8
2014-Sep-28 22:47 238 17.2
2014-Sep-28 22:42 238 17.2
2014-Sep-28 22:37 238 17.2
2014-Sep-28 22:32 238 1 gusting 1 17.2
2014-Sep-28 22:27 238 1 gusting 1 17.2
2014-Sep-28 22:22 238 0 gusting 1 17.2
2014-Sep-28 22:17 238 17.2
2014-Sep-28 22:12 238 17.2
2014-Sep-28 22:07 238 0 gusting 3 17.2
2014-Sep-28 22:02 211 17.2
2014-Sep-28 21:57 211 1 gusting 2 17.2
2014-Sep-28 21:52 211 2 gusting 2 17.2
2014-Sep-28 21:47 211 0 gusting 2 17.2
2014-Sep-28 21:42 211 17.2
2014-Sep-28 21:37 211 17.2
2014-Sep-28 21:32 211 17.2
2014-Sep-28 21:27 211 17.2
2014-Sep-28 21:22 211 17.2
2014-Sep-28 21:17 211 17.2
2014-Sep-28 21:12 211 17.2
2014-Sep-28 21:07 211 17.2
2014-Sep-28 21:02 211 1 gusting 2 17.2
2014-Sep-28 20:57 211 17.2
2014-Sep-28 20:52 211 17.2
2014-Sep-28 20:47 211 17.2
2014-Sep-28 20:42 211 17.2
2014-Sep-28 20:37 211 17.2
2014-Sep-28 20:32 211 17.2
2014-Sep-28 20:27 211 2 gusting 2 17.2
2014-Sep-28 20:22 211 17.2
2014-Sep-28 20:17 201 2 gusting 2 17.2
2014-Sep-28 20:12 191 0 gusting 2 17.2
2014-Sep-28 20:07 178 2 gusting 2 17.2
2014-Sep-28 20:02 178 17.2
2014-Sep-28 19:57 161 1 gusting 2 17.2
2014-Sep-28 19:52 134 17.2
2014-Sep-28 19:47 131 1 gusting 2 17.2
2014-Sep-28 19:42 126 0 gusting 2 17.2
2014-Sep-28 19:37 123 2 gusting 2 17.2
2014-Sep-28 19:32 082 17.2
2014-Sep-28 19:27 080 1 gusting 2 17.8
2014-Sep-28 19:22 058 17.8
2014-Sep-28 19:17 058 17.8
2014-Sep-28 19:12 058 17.8
2014-Sep-28 19:07 058 17.8
2014-Sep-28 19:02 058 17.8
2014-Sep-28 18:57 058 17.8
2014-Sep-28 18:52 058 17.8
2014-Sep-28 18:47 058 17.8
2014-Sep-28 18:42 058 17.8
2014-Sep-28 18:37 058 17.8
2014-Sep-28 18:32 058 17.8
2014-Sep-28 18:27 058 17.8
2014-Sep-28 18:22 058 17.8
2014-Sep-28 18:17 058 17.8
2014-Sep-28 18:12 058 17.8
2014-Sep-28 18:07 058 17.8
2014-Sep-28 18:02 058 17.8
2014-Sep-28 17:57 058 17.8
2014-Sep-28 17:52 058 17.8
2014-Sep-28 17:47 058 17.8
2014-Sep-28 17:42 058 17.8
2014-Sep-28 17:37 058 17.8
2014-Sep-28 17:32 058 17.8
2014-Sep-28 17:27 058 17.8
2014-Sep-28 17:22 058 17.8
2014-Sep-28 17:17 058 17.8
2014-Sep-28 17:12 058 17.8
2014-Sep-28 17:07 058 17.8
2014-Sep-28 17:02 058 17.8
2014-Sep-28 16:57 058 17.8
2014-Sep-28 16:52 058 17.8
2014-Sep-28 16:47 058 18.3
2014-Sep-28 16:42 058 18.3
2014-Sep-28 16:37 058 18.3
2014-Sep-28 16:32 058 18.3
2014-Sep-28 16:27 058 18.3
2014-Sep-28 16:22 058 18.3
2014-Sep-28 16:17 058 18.3
2014-Sep-28 16:12 058 18.3
2014-Sep-28 16:02 058 18.9
2014-Sep-28 15:57 057 18.9
2014-Sep-28 15:52 055 3 gusting 4 19.4
2014-Sep-28 15:47 049 2 gusting 6 19.4
2014-Sep-28 15:42 069 3 gusting 6 19.4
2014-Sep-28 15:37 069 2 gusting 4 20.0
2014-Sep-28 15:22 076 1 gusting 4 20.0
2014-Sep-28 15:17 038 2 gusting 4 20.6
2014-Sep-28 15:12 069 1 gusting 6 20.6
2014-Sep-28 15:07 071 3 gusting 6 20.0
2014-Sep-28 15:02 069 4 gusting 5 20.0